Regional Weather Roundup
Issued by NWS

Home | Current Version | Previous Version | Graphics & Text | Print | Product List | Glossary On
Versions: 1 2 3 4 5 6 7 8 9 10 11 12 13 14 15 16 17 18 19 20 21 22 23 24 25 26 27 28 29 30 31 32 33 34 35 36 37 38 39 40 41 42 43 44 45 46 47 48 49 50
000
ASUS45 KTFX 300604
RWRMT
MONTANA REGIONAL WEATHER ROUNDUP
NATIONAL WEATHER SERVICE GREAT FALLS MT
1200 AM MDT SUN AUG 30 2015

NOTE: "FAIR" INDICATES FEW OR NO CLOUDS BELOW 12000 FEET WITH NO
SIGNIFICANT WEATHER AND/OR OBSTRUCTIONS TO VISIBILITY.

MTZ001>007-043-300700-
WEST OF THE DIVIDE

CITY           SKY/WX    TMP DP  RH WIND       PRES   REMARKS
KALISPELL      CLOUDY    62  48  60 SW3       29.85S
MISSOULA       CLOUDY    67  46  47 NW13      29.88R
BUTTE          MOCLDY    65  42  43 CALM      29.94R HAZE
MULLAN PASS    CLOUDY    49  41  74 VRB3      29.98F
DEER LODGE       N/A     63  45  51 N6        29.94R
EUREKA           N/A     63  43  48 SE7       29.82F
HAMILTON         N/A     68  46  45 NE9       29.86R
LIBBY            N/A     55  46  71 NW5       29.84F
$$

MTZ008-052>055-300700-
SOUTHWEST MONTANA

CITY           SKY/WX    TMP DP  RH WIND       PRES   REMARKS
BOZEMAN        CLOUDY    77  41  27 S7        29.84F
DILLON         MOCLDY    76  41  28 S20G29    29.89R
W YELLOWSTONE  CLOUDY    57  46  67 N6        30.09S
$$

MTZ009-010-012-014-046-048-049-054-300700-
EAST SLOPES AND CENTRAL MONTANA

CITY           SKY/WX    TMP DP  RH WIND       PRES   REMARKS
CUT BANK       MOCLDY    62  43  49 W15       29.79F HAZE
GREAT FALLS    CLOUDY    61  50  67 SW7       29.80R
HELENA         CLOUDY    64  52  64 SW3       29.83R HAZE
$$

MTZ011-013-016-021-045-047-050-051-300700-
NORTH CENTRAL MONTANA

CITY           SKY/WX    TMP DP  RH WIND       PRES   REMARKS
HAVRE          CLOUDY    69  56  62 MISG      29.70R
LEWISTOWN      CLOUDY    65  50  58 SE5       29.82F
N BAR RANCH      N/A     70  43  37 CALM      29.86S
CHINOOK          N/A     73  55  53 CALM      29.67S
FORT BENTON      N/A     66  55  68 CALM      29.75R
$$

MTZ017>020-022>027-061-062-300700-
NORTHEAST MONTANA

CITY           SKY/WX    TMP DP  RH WIND       PRES   REMARKS
GLASGOW        CLOUDY    76  47  35 N5        29.69R HAZE
JORDAN           N/A     71  42  35 W14       29.72R
SIDNEY         MOCLDY    64  54  68 CALM      29.72F
WOLF POINT     CLOUDY    74  51  44 E6        29.67F HAZE
PLENTYWOOD       N/A     79  46  31 E13       29.72F
POPLAR           N/A     73  52  46 N6        29.69F
$$

MTZ028>42-056>058-300700-
SOUTHCENTRAL AND SOUTHEAST MONTANA

CITY           SKY/WX    TMP DP  RH WIND       PRES   REMARKS
BAKER          PTCLDY    73  50  44 S12       29.80F
BILLINGS       CLOUDY    79  40  24 SW7       29.78F
LIVINGSTON     CLOUDY    81  39  22 SW24G33   29.83F
MILES CITY     CLOUDY    82  47  29 S9        29.71F
FORSYTH          N/A     82  39  21 SE6       29.70F
$$

REGIONAL REPORTS...DAKOTAS

CITY           SKY/WX    TMP DP  RH WIND       PRES   REMARKS
WILLISTON      MOCLDY    66  54  65 CALM      29.73F HAZE
MINOT            N/A     81  60  48 S9        29.73F
BISMARCK       PTCLDY    70  64  81 SE9       29.80F
GRAND FORKS      N/A     69  67  93 S12       29.79F
FARGO            N/A     69  64  84 S14       29.85F
BUFFALO SD       N/A     70  52  52 S7        29.78F
RAPID CITY     PTCLDY    70  46  42 S6        29.91F
$$

REGIONAL REPORTS...WYOMING/IDAHO/WASHINGTON

CITY           SKY/WX    TMP DP  RH WIND       PRES   REMARKS
GILLETTE       MOCLDY    74  35  24 S16       29.90F
SHERIDAN       CLOUDY    64  45  49 S3        29.84F
BUFFALO WY     MOCLDY    76  35  22 SW9       29.93F
CODY           CLOUDY    72  43  35 CALM      29.92F
YELLOWSTONE LA   N/A     55  45  68 CALM      30.21F
IDAHO FALLS    CLOUDY    63  56  78 E12       29.95F
SALMON         MOCLDY    70  37  30 SE7       29.82S
BOISE          LGT RAIN  75  51  43 CALM      29.85R
SPOKANE        MOCLDY    60  43  53 SW5       29.83F
$$

REGIONAL REPORTS...ALBERTA

CITY           SKY/WX    TMP DP  RH WIND       PRES   REMARKS
$$

REGIONAL REPORTS...SASKATCHEWAN

CITY           SKY/WX    TMP DP  RH WIND       PRES   REMARKS
$$



USA.gov is the U.S. government's official web portal to all federal, state and local government web resources and services.